CZ-6A DEB

Satellite information

Favourite Embed

Satellite Type and Status

DEBRISIN ORBIT

Key statistics

Satellite CZ-6A DEB at a glance.

Uptime

1076

Days in orbit

Revolutions

≈ 14.2

Per day

Orbit

SSO

Sun Synchronous Orbit

Inclination

98.8

Latest

Satellite identification and parameters

Extended collection of information and parameters for CZ-6A DEB.

Object identification

Identified? True

Debris? True

Object name: CZ-6A DEB

International designator: 2022-151VQ

Object number (NORAD): 55199

Object ID (CCSDS): 55199

Country: PEOPLES REPUBLIC OF CHINA (PRC)

Current information (Y/N): Y

RCS size: SMALL

Orbital parameters

Period: 101.398 minutes

Inclination: 98.8104 deg

SMA: 7202.997 km

Apoapsis: 855.153 km

Periapsis: 794.571 km

RAAN: 299.8357 deg

Eccentricy: 0.00420533

Argument of periapsis: 288.7065 deg

Mean anomaly: 70.955 deg

Mean motion: 14.20145604 rev/day

Mean motion (dot): 0.00005855 rev/day2

B* drag term: 0.0027398732 1/REarth

Two-line elements (TLE)

Creation date: Oct. 21, 2025, 3:26 a.m.

Reference frame: TEME

Reference center: EARTH

Epoch: Oct. 20, 2025, 7:45 p.m. UTC

TLE line 0: 0 CZ-6A DEB

TLE line 1: 1 55199U 22151VQ 25293.82318130 .00005855 00000-0 27399-2 0 9992

TLE line 2: 2 55199 98.8104 299.8357 0042053 288.7065 70.9550 14.20145604146570

Live tracking on map

Real-time ground track for satellite CZ-6A DEB.

In-orbit conjunctions

A list of the most updated potential collisions computed for object CZ-6A DEB.

Target Orbit TCA Probability of collision Miss distance Type
THORAD AGENA D DEB SSO 2025-06-29 10:36:02 0.0001704483 231.0 (m) DEBRIS
THOR BURNER 2 R/B SSO 2024-09-12 19:57:48 0.0001409334 136.0 (m) ROCKET BODY

Associated space launch

Chinese satellite reported for atmospheric/ocean/environmental/spatial parameter research purposes, details TBD.

CZ-6A DEB was lifted into orbit during the mission ‘Long March 6A | Yunhai 3’, on board a Long March 6A space rocket.

The launch took place on Nov. 11, 2022, 10:52 p.m. from Launch Complex 9A.

For more information about the launch, click the button.

Launch to space Long March 6A | Yunhai 3
Long March 6A | Yunhai 3

Agency: N/A

Status: Launch Successful

Launch date: Nov. 11, 2022, 10:52 p.m. UTC

Rocket: Long March 6A

Launch pad: Launch Complex 9A

Location: Taiyuan Satellite Launch Center, People's Republic of China

...

Latest news about this satellite

There are no fresh news available about this satellite. Check back as we update our databases every day.


Newsletter sign-up

Weekly statistics, charts and insights to help you stay on top of the space industry.